Regional Weather Roundup
Issued by NWS

Home | Current Version | Previous Version | Graphics & Text | Print | Product List | Glossary On
Versions: 1 2 3 4 5 6 7 8 9 10 11 12 13 14 15 16 17 18 19 20 21 22 23 24 25 26 27 28 29 30 31 32 33 34 35 36 37 38 39 40 41 42 43 44 45 46 47 48 49 50
000
ASUS43 KOAX 041002
RWRNE

WEATHER ROUNDUP FOR NEBRASKA
NATIONAL WEATHER SERVICE OMAHA NE
400 AM CST WED MAR 04 2015

NOTES: SATELLITE DATA IS BEING USED TO AUGMENT CLOUD COVER ABOVE
       12000 FEET.
       "FAIR" INDICATES FEW OR NO CLOUDS BELOW 12,000 FEET WITH NO
       SIGNIFICANT WEATHER AND/OR OBSTRUCTIONS TO VISIBILITY.

  * THESE STATIONS DO NOT REPORT WEATHER SUCH AS RAIN...SNOW OR FOG.

NEZ001>004-019>022-054>056-041100-
NEBRASKA PANHANDLE

CITY           SKY/WX    TMP DP  RH WIND       PRES   REMARKS
SCOTTSBLUFF    MOCLDY     7   3  84 W5        30.09S WCI  -2
ALLIANCE       PTCLDY     2  -3  80 W10       30.06F WCI -14
CHADRON        PTCLDY     3  -4  72 SW7       30.14S WCI  -9
KIMBALL        CLOUDY    10   6  86 NW7       30.00F WCI  -2
SIDNEY         CLOUDY    12   3  67 N12       30.06S WCI  -2
$$

NEZ057>060-069>072-079>082-041100-
SOUTHWEST NEBRASKA

CITY           SKY/WX    TMP DP  RH WIND       PRES   REMARKS
NORTH PLATTE   PTCLDY     7   4  87 NW5       30.13S WCI  -2
IMPERIAL         N/A     17  11  77 NW8       30.11R WCI   7
LEXINGTON      PTCLDY    16  12  84 N7        30.15R WCI   6
MCCOOK         LGT SNOW  18  13  80 N3        30.16R
$$

NEZ005>010-023>029-035>040-094-041100-
NORTH CENTRAL NEBRASKA

CITY           SKY/WX    TMP DP  RH WIND       PRES   REMARKS
VALENTINE      CLEAR      7   0  73 W9        30.12S WCI  -7
AINSWORTH      CLEAR     10   2  68 W7        30.11S WCI  -1
BROKEN BOW     MOCLDY    13   8  81 NW8       30.13S WCI   2
ORD            PTCLDY    12   2  64 NW7       30.15R WCI   1
$$

NEZ041-046>049-061>064-073>077-083>087-041100-
SOUTH CENTRAL NEBRASKA

CITY           SKY/WX    TMP DP  RH WIND       PRES   REMARKS
GRAND ISLAND   CLOUDY    14  11  87 W5        30.17R WCI   6
AURORA         PTCLDY    12   9  88 NW6       30.16R WCI   3
HASTINGS       PTCLDY    11   8  88 NW6       30.16R WCI   1
HEBRON         FLURRIES  17  13  84 N3        30.19R
KEARNEY *      CLOUDY    16  10  79 NW8       30.16R WCI   5
$$

NEZ011>018-030>034-042>045-041100-
NORTHEAST NEBRASKA

CITY           SKY/WX    TMP DP  RH WIND       PRES   REMARKS
NORFOLK        MOCLDY    14   5  67 NW3       30.15S
ALBION         PTCLDY    13   1  61 NW3       30.16R
BLAIR          CLOUDY    18   6  60 NW8       30.16S WCI   7
COLUMBUS *     MOCLDY    18   7  62 W5        30.19R WCI  11
FREMONT        CLOUDY    18   8  62 NW5       30.19S WCI  11
TEKAMAH        MOCLDY    18   6  59 N6        30.20S WCI  10
$$

NEZ050>053-065>068-078-088>093-041100-
SOUTHEAST NEBRASKA

CITY           SKY/WX    TMP DP  RH WIND       PRES   REMARKS
LINCOLN        CLOUDY    16  13  88 N6        30.20S WCI   7
OMAHA EPPLEY   CLOUDY    17   8  67 N9        30.20S WCI   6
BEATRICE       FLURRIES  17  14  86 N7        30.20R WCI   8
FALLS CITY     FLURRIES  19   9  65 N14       30.19S WCI   6
NEBRASKA CITY  LGT SNOW  17  12  83 N3        30.19R
$$

NEZ044-045-051>053-067-041100-
OMAHA AREA

CITY           SKY/WX    TMP DP  RH WIND       PRES   REMARKS
OMAHA EPPLEY   CLOUDY    17   8  67 N9        30.20S WCI   6
BLAIR          CLOUDY    18   6  60 NW8       30.16S WCI   7
FREMONT        CLOUDY    18   8  62 NW5       30.19S WCI  11
OFFUTT AFB     PTCLDY    15  10  79 NW5       30.19S WCI   8
WAHOO          CLOUDY    15  10  79 NW3       30.19S
$$


USA.gov is the U.S. government's official web portal to all federal, state and local government web resources and services.